contact:dominique.lefevre@mio.osupytheas.fr, maurice.libes@osupytheas.fr, didier.mallarino@osupytheas.fr
Project:EMSO http://www.emso-fr.org/EMSO-France
Depth: 2436.0 m
Title:EMSO Ligure Ouest : Data MII capteur MICROCAT
DateTime_Computer,Latitude,Longitude,Temperature,Conductivity,Pressure,DateTime_Instrument
DateTime_Computer,Latitude,Longitude,degC,S m-1,dbar,DateTime_Instrument
2023-08-07T00:03:01Z,42.805,6.029,13.3067,4.60125,2470.763,2023-8-07T02:05:19Z
2023-08-07T00:06:04Z,42.805,6.029,13.3073,4.60176,2470.787,2023-8-07T02:08:22Z
2023-08-07T00:09:07Z,42.805,6.029,13.3089,4.60163,2470.74,2023-8-07T02:11:25Z
2023-08-07T00:12:10Z,42.805,6.029,13.3078,4.60180,2470.763,2023-8-07T02:14:28Z
2023-08-07T00:15:13Z,42.805,6.029,13.3088,4.60162,2470.74,2023-8-07T02:17:31Z
2023-08-07T00:18:16Z,42.805,6.029,13.3084,4.60163,2470.763,2023-8-07T02:20:35Z
2023-08-07T00:21:19Z,42.805,6.029,13.3076,4.60139,2470.763,2023-8-07T02:23:38Z
2023-08-07T00:24:22Z,42.805,6.029,13.3048,4.60126,2470.74,2023-8-07T02:26:41Z
2023-08-07T00:27:25Z,42.805,6.029,13.3074,4.60146,2470.763,2023-8-07T02:29:44Z
2023-08-07T00:30:28Z,42.805,6.029,13.3084,4.60183,2470.754,2023-8-07T02:32:47Z
2023-08-07T00:33:31Z,42.805,6.029,13.3084,4.60173,2470.754,2023-8-07T02:35:50Z
2023-08-07T00:36:34Z,42.805,6.029,13.3084,4.60183,2470.73,2023-8-07T02:38:53Z
2023-08-07T00:39:37Z,42.805,6.029,13.3082,4.60139,2470.754,2023-8-07T02:41:56Z
2023-08-07T00:42:41Z,42.805,6.029,13.3073,4.60129,2470.754,2023-8-07T02:44:59Z
2023-08-07T00:45:44Z,42.805,6.029,13.3073,4.60140,2470.754,2023-8-07T02:48:02Z
2023-08-07T00:48:47Z,42.805,6.029,13.3054,4.60127,2470.754,2023-8-07T02:51:05Z
2023-08-07T00:51:50Z,42.805,6.029,13.3046,4.60151,2470.754,2023-8-07T02:54:08Z
2023-08-07T00:54:53Z,42.805,6.029,13.3075,4.60128,2470.763,2023-8-07T02:57:11Z
2023-08-07T00:57:56Z,42.805,6.029,13.3071,4.60115,2470.73,2023-8-07T03:00:15Z
2023-08-07T01:00:59Z,42.805,6.029,13.3044,4.60123,2470.754,2023-8-07T03:03:18Z
2023-08-07T01:04:02Z,42.805,6.029,13.3063,4.60127,2470.754,2023-8-07T03:06:21Z
2023-08-07T01:07:05Z,42.805,6.029,13.3074,4.60110,2470.717,2023-8-07T03:09:24Z
2023-08-07T01:10:08Z,42.805,6.029,13.3088,4.60113,2470.754,2023-8-07T03:12:27Z
2023-08-07T01:13:11Z,42.805,6.029,13.3070,4.60198,2470.73,2023-8-07T03:15:30Z
2023-08-07T01:16:14Z,42.805,6.029,13.3062,4.60155,2470.717,2023-8-07T03:18:33Z
2023-08-07T01:19:17Z,42.805,6.029,13.3069,4.60173,2470.74,2023-8-07T03:21:36Z
2023-08-07T01:22:21Z,42.805,6.029,13.3068,4.60167,2470.693,2023-8-07T03:24:39Z
2023-08-07T01:25:24Z,42.805,6.029,13.3067,4.60165,2470.754,2023-8-07T03:27:42Z
2023-08-07T01:28:27Z,42.805,6.029,13.3078,4.60140,2470.754,2023-8-07T03:30:45Z
2023-08-07T01:31:30Z,42.805,6.029,13.3069,4.60156,2470.754,2023-8-07T03:33:48Z
2023-08-07T01:34:33Z,42.805,6.029,13.3080,4.60157,2470.707,2023-8-07T03:36:51Z
2023-08-07T01:37:36Z,42.805,6.029,13.3076,4.60155,2470.707,2023-8-07T03:39:55Z
2023-08-07T01:40:39Z,42.805,6.029,13.3097,4.60127,2470.684,2023-8-07T03:42:58Z
2023-08-07T01:43:42Z,42.805,6.029,13.3056,4.60113,2470.707,2023-8-07T03:46:01Z
2023-08-07T01:46:45Z,42.805,6.029,13.3069,4.60114,2470.707,2023-8-07T03:49:04Z
2023-08-07T01:49:48Z,42.805,6.029,13.3046,4.60131,2470.707,2023-8-07T03:52:07Z
2023-08-07T01:52:51Z,42.805,6.029,13.3055,4.60120,2470.707,2023-8-07T03:55:10Z
2023-08-07T01:55:54Z,42.805,6.029,13.3042,4.60166,2470.73,2023-8-07T03:58:13Z
2023-08-07T01:58:57Z,42.805,6.029,13.3044,4.60107,2470.717,2023-8-07T04:01:16Z
2023-08-07T02:02:01Z,42.805,6.029,13.3048,4.60116,2470.684,2023-8-07T04:04:19Z
2023-08-07T02:05:04Z,42.805,6.029,13.3043,4.60103,2470.73,2023-8-07T04:07:22Z
2023-08-07T02:08:07Z,42.805,6.029,13.3033,4.60119,2470.67,2023-8-07T04:10:25Z
2023-08-07T02:11:10Z,42.805,6.029,13.3036,4.60113,2470.67,2023-8-07T04:13:28Z
2023-08-07T02:14:13Z,42.805,6.029,13.3039,4.60107,2470.693,2023-8-07T04:16:31Z
2023-08-07T02:17:16Z,42.805,6.029,13.3031,4.60108,2470.67,2023-8-07T04:19:35Z
2023-08-07T02:20:19Z,42.805,6.029,13.3034,4.60108,2470.717,2023-8-07T04:22:38Z
2023-08-07T02:23:22Z,42.805,6.029,13.3027,4.60096,2470.717,2023-8-07T04:25:41Z
2023-08-07T02:26:25Z,42.805,6.029,13.3035,4.60109,2470.67,2023-8-07T04:28:44Z
2023-08-07T02:29:28Z,42.805,6.029,13.3034,4.60112,2470.633,2023-8-07T04:31:47Z
2023-08-07T02:32:31Z,42.805,6.029,13.3034,4.60104,2470.693,2023-8-07T04:34:50Z
2023-08-07T02:35:34Z,42.805,6.029,13.3030,4.60104,2470.646,2023-8-07T04:37:53Z
2023-08-07T02:38:37Z,42.805,6.029,13.3034,4.60110,2470.67,2023-8-07T04:40:56Z
2023-08-07T02:41:41Z,42.805,6.029,13.3029,4.60107,2470.693,2023-8-07T04:43:59Z
2023-08-07T02:44:44Z,42.805,6.029,13.3034,4.60111,2470.67,2023-8-07T04:47:02Z
2023-08-07T02:47:47Z,42.805,6.029,13.3033,4.60107,2470.646,2023-8-07T04:50:05Z
2023-08-07T02:50:50Z,42.805,6.029,13.3036,4.60105,2470.67,2023-8-07T04:53:08Z
2023-08-07T02:53:53Z,42.805,6.029,13.3034,4.60107,2470.684,2023-8-07T04:56:11Z
2023-08-07T02:56:56Z,42.805,6.029,13.3034,4.60103,2470.67,2023-8-07T04:59:14Z
2023-08-07T02:59:59Z,42.805,6.029,13.3036,4.60107,2470.661,2023-8-07T05:02:18Z
2023-08-07T03:03:02Z,42.805,6.029,13.3031,4.60102,2470.646,2023-8-07T05:05:21Z
2023-08-07T03:06:05Z,42.805,6.029,13.3032,4.60113,2470.646,2023-8-07T05:08:24Z
2023-08-07T03:09:08Z,42.805,6.029,13.3031,4.60107,2470.67,2023-8-07T05:11:27Z
2023-08-07T03:12:11Z,42.805,6.029,13.3036,4.60110,2470.646,2023-8-07T05:14:30Z
2023-08-07T03:15:14Z,42.805,6.029,13.3033,4.60110,2470.646,2023-8-07T05:17:33Z
2023-08-07T03:18:17Z,42.805,6.029,13.3033,4.60110,2470.661,2023-8-07T05:20:36Z
2023-08-07T03:21:20Z,42.805,6.029,13.3029,4.60101,2470.67,2023-8-07T05:23:39Z
2023-08-07T03:24:24Z,42.805,6.029,13.3031,4.60099,2470.646,2023-8-07T05:26:42Z
2023-08-07T03:27:27Z,42.805,6.029,13.3029,4.60097,2470.67,2023-8-07T05:29:45Z
2023-08-07T03:30:30Z,42.805,6.029,13.3036,4.60104,2470.67,2023-8-07T05:32:48Z
2023-08-07T03:33:33Z,42.805,6.029,13.3034,4.60103,2470.646,2023-8-07T05:35:51Z
2023-08-07T03:36:36Z,42.805,6.029,13.3026,4.60111,2470.646,2023-8-07T05:38:54Z
2023-08-07T03:39:39Z,42.805,6.029,13.3031,4.60110,2470.646,2023-8-07T05:41:58Z
2023-08-07T03:42:42Z,42.805,6.029,13.3033,4.60106,2470.624,2023-8-07T05:45:01Z
2023-08-07T03:45:45Z,42.805,6.029,13.3032,4.60116,2470.661,2023-8-07T05:48:04Z
2023-08-07T03:48:48Z,42.805,6.029,13.3032,4.60098,2470.684,2023-8-07T05:51:07Z
2023-08-07T03:51:51Z,42.805,6.029,13.3029,4.60111,2470.624,2023-8-07T05:54:10Z
2023-08-07T03:54:54Z,42.805,6.029,13.3031,4.60099,2470.637,2023-8-07T05:57:13Z
2023-08-07T03:57:57Z,42.805,6.029,13.3036,4.60107,2470.646,2023-8-07T06:00:16Z
2023-08-07T04:01:00Z,42.805,6.029,13.3030,4.60105,2470.624,2023-8-07T06:03:19Z
2023-08-07T04:04:04Z,42.805,6.029,13.3029,4.60106,2470.646,2023-8-07T06:06:22Z
2023-08-07T04:07:07Z,42.805,6.029,13.3029,4.60098,2470.646,2023-8-07T06:09:25Z
2023-08-07T04:10:10Z,42.805,6.029,13.3031,4.60094,2470.624,2023-8-07T06:12:28Z
2023-08-07T04:13:13Z,42.805,6.029,13.3031,4.60099,2470.646,2023-8-07T06:15:31Z
2023-08-07T04:16:16Z,42.805,6.029,13.3033,4.60096,2470.661,2023-8-07T06:18:34Z
2023-08-07T04:19:19Z,42.805,6.029,13.3030,4.60110,2470.646,2023-8-07T06:21:38Z
2023-08-07T04:22:22Z,42.805,6.029,13.3031,4.60117,2470.661,2023-8-07T06:24:41Z
2023-08-07T04:25:25Z,42.805,6.029,13.3036,4.60099,2470.577,2023-8-07T06:27:44Z
2023-08-07T04:28:28Z,42.805,6.029,13.3031,4.60098,2470.624,2023-8-07T06:30:47Z
2023-08-07T04:31:32Z,42.805,6.029,13.3030,4.60107,2470.646,2023-8-07T06:33:50Z
2023-08-07T04:34:35Z,42.805,6.029,13.3034,4.60110,2470.624,2023-8-07T06:36:53Z
2023-08-07T04:37:38Z,42.805,6.029,13.3032,4.60102,2470.6,2023-8-07T06:39:57Z
2023-08-07T04:40:41Z,42.805,6.029,13.3031,4.60104,2470.624,2023-8-07T06:43:00Z
2023-08-07T04:43:44Z,42.805,6.029,13.3031,4.60117,2470.624,2023-8-07T06:46:03Z
2023-08-07T04:46:47Z,42.805,6.029,13.3034,4.60105,2470.6,2023-8-07T06:49:06Z
2023-08-07T04:49:50Z,42.805,6.029,13.3033,4.60110,2470.6,2023-8-07T06:52:09Z
2023-08-07T04:52:53Z,42.805,6.029,13.3031,4.60102,2470.646,2023-8-07T06:55:12Z
2023-08-07T04:55:56Z,42.805,6.029,13.3032,4.60096,2470.624,2023-8-07T06:58:15Z
2023-08-07T04:58:59Z,42.805,6.029,13.3030,4.60099,2470.6,2023-8-07T07:01:18Z
2023-08-07T05:02:03Z,42.805,6.029,13.3030,4.60099,2470.614,2023-8-07T07:04:21Z
2023-08-07T05:05:06Z,42.805,6.029,13.3029,4.60099,2470.577,2023-8-07T07:07:24Z
2023-08-07T05:08:09Z,42.805,6.029,13.3033,4.60104,2470.624,2023-8-07T07:10:27Z
2023-08-07T05:11:12Z,42.805,6.029,13.3028,4.60105,2470.624,2023-8-07T07:13:30Z
2023-08-07T05:14:15Z,42.805,6.029,13.3032,4.60112,2470.614,2023-8-07T07:16:33Z
2023-08-07T05:17:18Z,42.805,6.029,13.3030,4.60102,2470.624,2023-8-07T07:19:37Z
2023-08-07T05:20:21Z,42.805,6.029,13.3034,4.60101,2470.6,2023-8-07T07:22:40Z
2023-08-07T05:23:24Z,42.805,6.029,13.3034,4.60106,2470.637,2023-8-07T07:25:43Z
2023-08-07T05:26:27Z,42.805,6.029,13.3035,4.60114,2470.661,2023-8-07T07:28:46Z
2023-08-07T05:29:30Z,42.805,6.029,13.3043,4.60108,2470.591,2023-8-07T07:31:49Z
2023-08-07T05:32:33Z,42.805,6.029,13.3035,4.60108,2470.6,2023-8-07T07:34:52Z
2023-08-07T05:35:36Z,42.805,6.029,13.3036,4.60106,2470.614,2023-8-07T07:37:55Z
2023-08-07T05:38:39Z,42.805,6.029,13.3031,4.60116,2470.624,2023-8-07T07:40:58Z
2023-08-07T05:41:43Z,42.805,6.029,13.3035,4.60183,2470.646,2023-8-07T07:44:01Z
2023-08-07T05:44:46Z,42.805,6.029,13.3039,4.60127,2470.624,2023-8-07T07:47:04Z
2023-08-07T05:47:49Z,42.805,6.029,13.3039,4.60126,2470.577,2023-8-07T07:50:07Z
2023-08-07T05:50:52Z,42.805,6.029,13.3061,4.60147,2470.614,2023-8-07T07:53:10Z
2023-08-07T05:53:55Z,42.805,6.029,13.3031,4.60111,2470.614,2023-8-07T07:56:13Z
2023-08-07T05:56:58Z,42.805,6.029,13.3039,4.60110,2470.624,2023-8-07T07:59:17Z
2023-08-07T06:00:01Z,42.805,6.029,13.3036,4.60125,2470.577,2023-8-07T08:02:20Z
2023-08-07T06:03:04Z,42.805,6.029,13.3046,4.60122,2470.577,2023-8-07T08:05:23Z
2023-08-07T06:06:07Z,42.805,6.029,13.3063,4.60127,2470.6,2023-8-07T08:08:26Z
2023-08-07T06:09:10Z,42.805,6.029,13.3041,4.60107,2470.624,2023-8-07T08:11:29Z
2023-08-07T06:12:13Z,42.805,6.029,13.3064,4.60112,2470.591,2023-8-07T08:14:32Z
2023-08-07T06:15:16Z,42.805,6.029,13.3072,4.60102,2470.577,2023-8-07T08:17:35Z
2023-08-07T06:18:19Z,42.805,6.029,13.3073,4.60104,2470.591,2023-8-07T08:20:38Z
2023-08-07T06:21:23Z,42.805,6.029,13.3074,4.60122,2470.614,2023-8-07T08:23:41Z
2023-08-07T06:24:26Z,42.805,6.029,13.3082,4.60147,2470.614,2023-8-07T08:26:44Z
2023-08-07T06:27:29Z,42.805,6.029,13.3069,4.60162,2470.624,2023-8-07T08:29:47Z
2023-08-07T06:30:32Z,42.805,6.029,13.3071,4.60157,2470.591,2023-8-07T08:32:50Z
2023-08-07T06:33:35Z,42.805,6.029,13.3076,4.60202,2470.614,2023-8-07T08:35:53Z
2023-08-07T06:36:38Z,42.805,6.029,13.3084,4.60160,2470.591,2023-8-07T08:38:56Z
2023-08-07T06:39:41Z,42.805,6.029,13.3054,4.60201,2470.614,2023-8-07T08:41:59Z
2023-08-07T06:42:44Z,42.805,6.029,13.3075,4.60155,2470.577,2023-8-07T08:45:02Z
2023-08-07T06:45:47Z,42.805,6.029,13.3078,4.60174,2470.614,2023-8-07T08:48:06Z
2023-08-07T06:48:50Z,42.805,6.029,13.3077,4.60145,2470.6,2023-8-07T08:51:09Z
2023-08-07T06:51:53Z,42.805,6.029,13.3080,4.60150,2470.6,2023-8-07T08:54:12Z
2023-08-07T06:54:56Z,42.805,6.029,13.3058,4.60175,2470.614,2023-8-07T08:57:15Z
2023-08-07T06:57:59Z,42.805,6.029,13.3063,4.60150,2470.591,2023-8-07T09:00:18Z
2023-08-07T07:01:02Z,42.805,6.029,13.3069,4.60181,2470.6,2023-8-07T09:03:21Z
2023-08-07T07:04:05Z,42.805,6.029,13.3066,4.60167,2470.591,2023-8-07T09:06:24Z
2023-08-07T07:07:08Z,42.805,6.029,13.3058,4.60181,2470.637,2023-8-07T09:09:27Z
2023-08-07T07:10:12Z,42.805,6.029,13.3089,4.60133,2470.614,2023-8-07T09:12:30Z
2023-08-07T07:13:15Z,42.805,6.029,13.3070,4.60147,2470.637,2023-8-07T09:15:33Z
2023-08-07T07:16:18Z,42.805,6.029,13.3066,4.60172,2470.614,2023-8-07T09:18:36Z
2023-08-07T07:19:21Z,42.805,6.029,13.3051,4.60141,2470.6,2023-8-07T09:21:39Z
2023-08-07T07:22:24Z,42.805,6.029,13.3066,4.60126,2470.624,2023-8-07T09:24:42Z
2023-08-07T07:25:27Z,42.805,6.029,13.3062,4.60148,2470.591,2023-8-07T09:27:46Z
2023-08-07T07:28:30Z,42.805,6.029,13.3070,4.60144,2470.591,2023-8-07T09:30:49Z
2023-08-07T07:31:33Z,42.805,6.029,13.3050,4.60137,2470.624,2023-8-07T09:33:52Z
2023-08-07T07:34:36Z,42.805,6.029,13.3063,4.60160,2470.614,2023-8-07T09:36:55Z
2023-08-07T07:37:39Z,42.805,6.029,13.3066,4.60161,2470.614,2023-8-07T09:39:58Z
2023-08-07T07:40:42Z,42.805,6.029,13.3070,4.60129,2470.624,2023-8-07T09:43:01Z
2023-08-07T07:43:45Z,42.805,6.029,13.3057,4.60149,2470.646,2023-8-07T09:46:04Z
2023-08-07T07:46:48Z,42.805,6.029,13.3049,4.60146,2470.614,2023-8-07T09:49:07Z
2023-08-07T07:49:51Z,42.805,6.029,13.3045,4.60179,2470.637,2023-8-07T09:52:10Z
2023-08-07T07:52:55Z,42.805,6.029,13.3065,4.60154,2470.637,2023-8-07T09:55:13Z
2023-08-07T07:55:58Z,42.805,6.029,13.3067,4.60169,2470.67,2023-8-07T09:58:16Z
2023-08-07T07:59:01Z,42.805,6.029,13.3069,4.60167,2470.614,2023-8-07T10:01:19Z
2023-08-07T08:02:04Z,42.805,6.029,13.3069,4.60183,2470.624,2023-8-07T10:04:22Z
2023-08-07T08:05:07Z,42.805,6.029,13.3061,4.60155,2470.637,2023-8-07T10:07:26Z
2023-08-07T08:08:10Z,42.805,6.029,13.3067,4.60164,2470.661,2023-8-07T10:10:29Z
2023-08-07T08:11:13Z,42.805,6.029,13.3073,4.60144,2470.624,2023-8-07T10:13:32Z
2023-08-07T08:14:16Z,42.805,6.029,13.3100,4.60180,2470.661,2023-8-07T10:16:35Z
2023-08-07T08:17:19Z,42.805,6.029,13.3073,4.60168,2470.661,2023-8-07T10:19:38Z
2023-08-07T08:20:22Z,42.805,6.029,13.3061,4.60194,2470.661,2023-8-07T10:22:41Z
2023-08-07T08:23:25Z,42.805,6.029,13.3070,4.60140,2470.637,2023-8-07T10:25:44Z
2023-08-07T08:26:29Z,42.805,6.029,13.3093,4.60144,2470.646,2023-8-07T10:28:47Z
2023-08-07T08:29:32Z,42.805,6.029,13.3097,4.60181,2470.646,2023-8-07T10:31:50Z
2023-08-07T08:32:34Z,42.805,6.029,13.3081,4.60225,2470.67,2023-8-07T10:34:53Z
2023-08-07T08:35:38Z,42.805,6.029,13.3092,4.60160,2470.637,2023-8-07T10:37:56Z
2023-08-07T08:38:41Z,42.805,6.029,13.3056,4.60186,2470.67,2023-8-07T10:40:59Z
2023-08-07T08:41:44Z,42.805,6.029,13.3073,4.60157,2470.684,2023-8-07T10:44:02Z
2023-08-07T08:44:47Z,42.805,6.029,13.3081,4.60190,2470.67,2023-8-07T10:47:05Z
2023-08-07T08:47:50Z,42.805,6.029,13.3084,4.60200,2470.646,2023-8-07T10:50:08Z
2023-08-07T08:50:53Z,42.805,6.029,13.3097,4.60161,2470.707,2023-8-07T10:53:12Z
2023-08-07T08:53:56Z,42.805,6.029,13.3098,4.60143,2470.684,2023-8-07T10:56:15Z
2023-08-07T08:56:59Z,42.805,6.029,13.3093,4.60162,2470.693,2023-8-07T10:59:18Z
2023-08-07T09:00:02Z,42.805,6.029,13.3100,4.60121,2470.67,2023-8-07T11:02:21Z
2023-08-07T09:03:05Z,42.805,6.029,13.3107,4.60119,2470.707,2023-8-07T11:05:24Z
2023-08-07T09:06:08Z,42.805,6.029,13.3104,4.60123,2470.684,2023-8-07T11:08:27Z
2023-08-07T09:09:11Z,42.805,6.029,13.3105,4.60125,2470.656,2023-8-07T11:11:30Z
2023-08-07T09:12:15Z,42.805,6.029,13.3101,4.60108,2470.684,2023-8-07T11:14:33Z
2023-08-07T09:15:18Z,42.805,6.029,13.3095,4.60112,2470.67,2023-8-07T11:17:36Z
2023-08-07T09:18:21Z,42.805,6.029,13.3091,4.60117,2470.646,2023-8-07T11:20:39Z
2023-08-07T09:21:24Z,42.805,6.029,13.3100,4.60141,2470.693,2023-8-07T11:23:42Z
2023-08-07T09:24:27Z,42.805,6.029,13.3098,4.60137,2470.693,2023-8-07T11:26:45Z
2023-08-07T09:27:30Z,42.805,6.029,13.3104,4.60122,2470.707,2023-8-07T11:29:49Z
2023-08-07T09:30:33Z,42.805,6.029,13.3104,4.60160,2470.707,2023-8-07T11:32:52Z
2023-08-07T09:33:36Z,42.805,6.029,13.3104,4.60150,2470.67,2023-8-07T11:35:55Z
2023-08-07T09:36:39Z,42.805,6.029,13.3111,4.60165,2470.693,2023-8-07T11:38:58Z
2023-08-07T09:39:42Z,42.805,6.029,13.3113,4.60150,2470.73,2023-8-07T11:42:01Z
2023-08-07T09:42:45Z,42.805,6.029,13.3114,4.60162,2470.67,2023-8-07T11:45:04Z
2023-08-07T09:45:48Z,42.805,6.029,13.3126,4.60173,2470.754,2023-8-07T11:48:07Z
2023-08-07T09:48:51Z,42.805,6.029,13.3105,4.60152,2470.693,2023-8-07T11:51:10Z
2023-08-07T09:51:55Z,42.805,6.029,13.3123,4.60141,2470.707,2023-8-07T11:54:13Z
2023-08-07T09:54:58Z,42.805,6.029,13.3136,4.60133,2470.693,2023-8-07T11:57:16Z
2023-08-07T09:58:01Z,42.805,6.029,13.3039,4.60186,2470.73,2023-8-07T12:00:19Z
2023-08-07T10:01:04Z,42.805,6.029,13.3043,4.60173,2470.707,2023-8-07T12:03:22Z
2023-08-07T10:04:07Z,42.805,6.029,13.3054,4.60155,2470.717,2023-8-07T12:06:26Z
2023-08-07T10:07:10Z,42.805,6.029,13.3048,4.60161,2470.73,2023-8-07T12:09:29Z
2023-08-07T10:10:13Z,42.805,6.029,13.3037,4.60194,2470.74,2023-8-07T12:12:32Z
2023-08-07T10:13:16Z,42.805,6.029,13.3037,4.60194,2470.707,2023-8-07T12:15:35Z
2023-08-07T10:16:19Z,42.805,6.029,13.3034,4.60215,2470.73,2023-8-07T12:18:38Z
2023-08-07T10:19:22Z,42.805,6.029,13.3034,4.60177,2470.74,2023-8-07T12:21:41Z
2023-08-07T10:22:25Z,42.805,6.029,13.3034,4.60178,2470.74,2023-8-07T12:24:44Z
2023-08-07T10:25:28Z,42.805,6.029,13.3032,4.60147,2470.754,2023-8-07T12:27:47Z
2023-08-07T10:28:32Z,42.805,6.029,13.3031,4.60190,2470.74,2023-8-07T12:30:50Z
2023-08-07T10:31:33Z,42.805,6.029,13.3040,4.60140,2470.754,2023-8-07T12:33:52Z
2023-08-07T10:34:36Z,42.805,6.029,13.3031,4.60188,2470.74,2023-8-07T12:36:55Z
2023-08-07T10:37:39Z,42.805,6.029,13.3068,4.60177,2470.717,2023-8-07T12:39:58Z
2023-08-07T10:40:42Z,42.805,6.029,13.3067,4.60148,2470.754,2023-8-07T12:43:01Z
2023-08-07T10:43:45Z,42.805,6.029,13.3038,4.60115,2470.74,2023-8-07T12:46:04Z
2023-08-07T10:46:49Z,42.805,6.029,13.3044,4.60099,2470.74,2023-8-07T12:49:07Z
2023-08-07T10:49:52Z,42.805,6.029,13.3034,4.60122,2470.717,2023-8-07T12:52:10Z
2023-08-07T10:52:55Z,42.805,6.029,13.3038,4.60125,2470.763,2023-8-07T12:55:13Z
2023-08-07T10:55:58Z,42.805,6.029,13.3046,4.60102,2470.74,2023-8-07T12:58:16Z
2023-08-07T10:59:01Z,42.805,6.029,13.3036,4.60120,2470.787,2023-8-07T13:01:19Z
2023-08-07T11:02:04Z,42.805,6.029,13.3036,4.60109,2470.74,2023-8-07T13:04:23Z
2023-08-07T11:05:07Z,42.805,6.029,13.3036,4.60101,2470.717,2023-8-07T13:07:26Z
2023-08-07T11:08:10Z,42.805,6.029,13.3044,4.60102,2470.754,2023-8-07T13:10:29Z
2023-08-07T11:11:13Z,42.805,6.029,13.3045,4.60103,2470.74,2023-8-07T13:13:32Z
2023-08-07T11:14:16Z,42.805,6.029,13.3049,4.60102,2470.754,2023-8-07T13:16:35Z
2023-08-07T11:17:19Z,42.805,6.029,13.3049,4.60102,2470.73,2023-8-07T13:19:38Z
2023-08-07T11:20:22Z,42.805,6.029,13.3041,4.60102,2470.717,2023-8-07T13:22:41Z
2023-08-07T11:23:25Z,42.805,6.029,13.3041,4.60136,2470.717,2023-8-07T13:25:44Z
2023-08-07T11:26:29Z,42.805,6.029,13.3034,4.60165,2470.73,2023-8-07T13:28:47Z
2023-08-07T11:29:32Z,42.805,6.029,13.3032,4.60145,2470.74,2023-8-07T13:31:50Z
2023-08-07T11:32:35Z,42.805,6.029,13.3035,4.60103,2470.744,2023-8-07T13:34:53Z
2023-08-07T11:35:38Z,42.805,6.029,13.3031,4.60099,2470.754,2023-8-07T13:37:56Z
2023-08-07T11:38:41Z,42.805,6.029,13.3034,4.60097,2470.763,2023-8-07T13:41:00Z
2023-08-07T11:41:44Z,42.805,6.029,13.3028,4.60096,2470.717,2023-8-07T13:44:03Z
2023-08-07T11:44:47Z,42.805,6.029,13.3034,4.60098,2470.717,2023-8-07T13:47:06Z
2023-08-07T11:47:50Z,42.805,6.029,13.3031,4.60098,2470.73,2023-8-07T13:50:09Z
2023-08-07T11:50:53Z,42.805,6.029,13.3033,4.60095,2470.73,2023-8-07T13:53:12Z
2023-08-07T11:53:56Z,42.805,6.029,13.3028,4.60094,2470.754,2023-8-07T13:56:15Z
2023-08-07T11:56:59Z,42.805,6.029,13.3032,4.60099,2470.717,2023-8-07T13:59:18Z
2023-08-07T12:00:02Z,42.805,6.029,13.3032,4.60095,2470.717,2023-8-07T14:02:21Z
2023-08-07T12:03:06Z,42.805,6.029,13.3034,4.60101,2470.74,2023-8-07T14:05:24Z
2023-08-07T12:06:09Z,42.805,6.029,13.3030,4.60093,2470.717,2023-8-07T14:08:27Z
2023-08-07T12:09:12Z,42.805,6.029,13.3031,4.60099,2470.717,2023-8-07T14:11:30Z
2023-08-07T12:12:15Z,42.805,6.029,13.3030,4.60102,2470.717,2023-8-07T14:14:33Z
2023-08-07T12:15:18Z,42.805,6.029,13.3031,4.60102,2470.74,2023-8-07T14:17:36Z
2023-08-07T12:18:21Z,42.805,6.029,13.3029,4.60104,2470.73,2023-8-07T14:20:40Z
2023-08-07T12:21:24Z,42.805,6.029,13.3030,4.60108,2470.717,2023-8-07T14:23:43Z
2023-08-07T12:24:27Z,42.805,6.029,13.3029,4.60107,2470.717,2023-8-07T14:26:46Z
2023-08-07T12:27:30Z,42.805,6.029,13.3031,4.60102,2470.693,2023-8-07T14:29:49Z
2023-08-07T12:30:33Z,42.805,6.029,13.3031,4.60102,2470.74,2023-8-07T14:32:52Z
2023-08-07T12:33:36Z,42.805,6.029,13.3030,4.60103,2470.717,2023-8-07T14:35:55Z
2023-08-07T12:36:39Z,42.805,6.029,13.3029,4.60101,2470.73,2023-8-07T14:38:58Z
2023-08-07T12:39:42Z,42.805,6.029,13.3035,4.60110,2470.754,2023-8-07T14:42:01Z
2023-08-07T12:42:46Z,42.805,6.029,13.3026,4.60104,2470.74,2023-8-07T14:45:04Z
2023-08-07T12:45:49Z,42.805,6.029,13.3027,4.60104,2470.717,2023-8-07T14:48:07Z
2023-08-07T12:48:52Z,42.805,6.029,13.3031,4.60110,2470.717,2023-8-07T14:51:10Z
2023-08-07T12:51:55Z,42.805,6.029,13.3040,4.60112,2470.707,2023-8-07T14:54:13Z
2023-08-07T12:54:58Z,42.805,6.029,13.3030,4.60103,2470.717,2023-8-07T14:57:17Z
2023-08-07T12:58:01Z,42.805,6.029,13.3031,4.60104,2470.717,2023-8-07T15:00:20Z
2023-08-07T13:01:04Z,42.805,6.029,13.3029,4.60096,2470.717,2023-8-07T15:03:23Z
2023-08-07T13:04:07Z,42.805,6.029,13.3031,4.60104,2470.693,2023-8-07T15:06:26Z
2023-08-07T13:07:10Z,42.805,6.029,13.3048,4.60106,2470.693,2023-8-07T15:09:29Z
2023-08-07T13:10:13Z,42.805,6.029,13.3034,4.60099,2470.707,2023-8-07T15:12:32Z
2023-08-07T13:13:16Z,42.805,6.029,13.3034,4.60138,2470.67,2023-8-07T15:15:35Z
2023-08-07T13:16:19Z,42.805,6.029,13.3053,4.60114,2470.717,2023-8-07T15:18:38Z
2023-08-07T13:19:23Z,42.805,6.029,13.3097,4.60117,2470.707,2023-8-07T15:21:41Z
2023-08-07T13:22:26Z,42.805,6.029,13.3085,4.60121,2470.717,2023-8-07T15:24:44Z
2023-08-07T13:25:29Z,42.805,6.029,13.3058,4.60101,2470.717,2023-8-07T15:27:47Z
2023-08-07T13:28:32Z,42.805,6.029,13.3038,4.60101,2470.684,2023-8-07T15:30:50Z
2023-08-07T13:31:35Z,42.805,6.029,13.3043,4.60107,2470.707,2023-8-07T15:33:54Z
2023-08-07T13:34:38Z,42.805,6.029,13.3041,4.60101,2470.67,2023-8-07T15:36:57Z
2023-08-07T13:37:41Z,42.805,6.029,13.3034,4.60141,2470.707,2023-8-07T15:40:00Z
2023-08-07T13:40:44Z,42.805,6.029,13.3039,4.60104,2470.684,2023-8-07T15:43:03Z
2023-08-07T13:43:47Z,42.805,6.029,13.3032,4.60114,2470.67,2023-8-07T15:46:06Z
2023-08-07T13:46:50Z,42.805,6.029,13.3052,4.60123,2470.707,2023-8-07T15:49:09Z
2023-08-07T13:49:53Z,42.805,6.029,13.3078,4.60132,2470.707,2023-8-07T15:52:12Z
2023-08-07T13:52:56Z,42.805,6.029,13.3067,4.60117,2470.693,2023-8-07T15:55:15Z
2023-08-07T13:56:00Z,42.805,6.029,13.3073,4.60152,2470.684,2023-8-07T15:58:18Z
2023-08-07T13:59:03Z,42.805,6.029,13.3047,4.60109,2470.67,2023-8-07T16:01:21Z
2023-08-07T14:02:06Z,42.805,6.029,13.3077,4.60104,2470.707,2023-8-07T16:04:24Z
2023-08-07T14:05:09Z,42.805,6.029,13.3039,4.60105,2470.693,2023-8-07T16:07:27Z
2023-08-07T14:08:12Z,42.805,6.029,13.3031,4.60103,2470.67,2023-8-07T16:10:30Z
2023-08-07T14:11:15Z,42.805,6.029,13.3032,4.60102,2470.67,2023-8-07T16:13:34Z
2023-08-07T14:14:18Z,42.805,6.029,13.3054,4.60130,2470.684,2023-8-07T16:16:37Z
2023-08-07T14:17:21Z,42.805,6.029,13.3111,4.60138,2470.684,2023-8-07T16:19:40Z
2023-08-07T14:20:24Z,42.805,6.029,13.3031,4.60106,2470.684,2023-8-07T16:22:43Z
2023-08-07T14:23:27Z,42.805,6.029,13.3031,4.60109,2470.693,2023-8-07T16:25:46Z
2023-08-07T14:26:30Z,42.805,6.029,13.3030,4.60105,2470.67,2023-8-07T16:28:49Z
2023-08-07T14:29:33Z,42.805,6.029,13.3028,4.60109,2470.646,2023-8-07T16:31:52Z
2023-08-07T14:32:36Z,42.805,6.029,13.3030,4.60104,2470.67,2023-8-07T16:34:54Z
2023-08-07T14:35:39Z,42.805,6.029,13.3029,4.60105,2470.661,2023-8-07T16:37:57Z
2023-08-07T14:38:42Z,42.805,6.029,13.3032,4.60104,2470.646,2023-8-07T16:41:01Z
2023-08-07T14:41:45Z,42.805,6.029,13.3040,4.60114,2470.646,2023-8-07T16:44:04Z
2023-08-07T14:44:48Z,42.805,6.029,13.3037,4.60104,2470.624,2023-8-07T16:47:07Z
2023-08-07T14:47:51Z,42.805,6.029,13.3061,4.60113,2470.684,2023-8-07T16:50:10Z
2023-08-07T14:50:54Z,42.805,6.029,13.3069,4.60129,2470.67,2023-8-07T16:53:13Z
2023-08-07T14:53:57Z,42.805,6.029,13.3069,4.60119,2470.684,2023-8-07T16:56:16Z
2023-08-07T14:57:00Z,42.805,6.029,13.3068,4.60125,2470.684,2023-8-07T16:59:19Z
2023-08-07T15:00:03Z,42.805,6.029,13.3070,4.60129,2470.684,2023-8-07T17:02:22Z
2023-08-07T15:03:07Z,42.805,6.029,13.3069,4.60140,2470.6,2023-8-07T17:05:25Z
2023-08-07T15:06:10Z,42.805,6.029,13.3060,4.60127,2470.693,2023-8-07T17:08:28Z
2023-08-07T15:09:13Z,42.805,6.029,13.3066,4.60119,2470.646,2023-8-07T17:11:31Z
2023-08-07T15:12:16Z,42.805,6.029,13.3067,4.60117,2470.624,2023-8-07T17:14:34Z
2023-08-07T15:15:19Z,42.805,6.029,13.3084,4.60166,2470.624,2023-8-07T17:17:38Z